DW9160 Weather Reports


Display with metric or nautical units.
time (UTC)temp
F
wind
direction
speed
MPH
gust
MPH
rain 1hr
in
rain 24hr
in
rain mn
in
humidity
%
barometer
mb
20260506061522 54 0.0 0.0 0.00 0.00 0.00 71 1015.1
20260506060521 55 0.0 0.0 0.00 0.00 0.00 71 1014.9
20260506050523 56 0.0 3.0 0.00 0.00 0.00 70 1014.6
20260506044517 57 0 3.0 4.0 0.00 0.00 0.00 69 1014.6
20260506043524 57 248 4.0 6.0 0.00 0.00 0.00 69 1014.4
20260506042542 57 0 3.0 6.0 0.00 0.00 0.00 69 1014.3
20260506041523 57 0 4.0 7.0 0.00 0.00 0.00 68 1014.2
20260506040523 58 0 4.0 8.0 0.00 0.00 0.00 67 1014.0
20260506035525 58 0 4.0 6.0 0.00 0.00 0.00 66 1013.8
20260506034525 59 0 5.0 8.0 0.00 0.00 0.00 64 1013.9
20260506033522 60 0 5.0 7.0 0.00 0.00 0.00 62 1013.7
20260506032523 62 0 5.0 9.0 0.00 0.00 0.00 59 1013.8
20260506031523 62 0 6.0 11.0 0.00 0.00 0.00 57 1013.6
20260506030523 63 0 7.0 11.0 0.00 0.00 0.00 56 1013.8
20260506025524 64 0 5.0 10.0 0.00 0.00 0.00 53 1013.6
20260506024526 65 0 5.0 10.0 0.00 0.00 0.00 50 1013.7
20260506023520 66 0 10.0 15.0 0.00 0.00 0.00 47 1013.6
20260506022518 66 0 9.0 14.0 0.00 0.00 0.00 46 1013.5
20260506021525 67 0 8.0 15.0 0.00 0.00 0.00 44 1013.7
20260506020524 68 0 9.0 16.0 0.00 0.00 0.00 43 1013.7
20260506015522 68 0 9.0 16.0 0.00 0.00 0.00 41 1013.7
20260506014524 69 0 11.0 19.0 0.00 0.00 0.00 40 1013.9
20260506013525 69 0 12.0 19.0 0.00 0.00 0.00 38 1013.9
20260506012520 70 0 10.0 17.0 0.00 0.00 0.00 38 1013.8
20260506011542 70 0 11.0 17.0 0.00 0.00 0.00 37 1013.6
20260506010523 71 0 11.0 18.0 0.00 0.00 0.00 37 1013.8
20260506005522 71 0 11.0 18.0 0.00 0.00 0.00 37 1013.8
20260506004522 71 0 11.0 22.0 0.00 0.00 0.00 38 1013.7
20260506003522 72 0 13.0 21.0 0.00 0.00 0.00 36 1013.7
20260506002523 72 0 13.0 25.0 0.00 0.00 0.00 36 1013.6
20260506001519 72 0 13.0 20.0 0.00 0.00 0.00 36 1013.5
20260506000543 73 0 14.0 22.0 0.00 0.00 0.00 35 1013.8
20260505235524 73 0 13.0 22.0 0.00 0.00 0.00 36 1013.7
20260505234523 73 0 13.0 21.0 0.00 0.00 0.00 36 1013.8
20260505233527 73 0 13.0 22.0 0.00 0.00 0.00 37 1013.8
20260505232523 72 0 12.0 21.0 0.00 0.00 0.00 37 1013.5
20260505231523 73 0 12.0 20.0 0.00 0.00 0.00 37 1013.8
20260505230518 71 0 9.0 13.0 0.00 0.00 0.00 41 1013.3
20260505225524 71 0 9.0 14.0 0.00 0.00 0.00 39 1013.6
20260505224524 72 0 12.0 20.0 0.00 0.00 0.00 40 1013.7
20260505223524 74 0 9.0 17.0 0.00 0.00 0.00 38 1014.0
20260505222525 72 0 10.0 16.0 0.00 0.00 0.00 38 1013.8
20260505221524 73 0 9.0 14.0 0.00 0.00 0.00 37 1014.1
20260505220519 75 0 9.0 16.0 0.00 0.00 0.00 36 1014.5
20260505215518 75 0 8.0 15.0 0.00 0.00 0.00 36 1014.5
20260505214546 74 0 11.0 17.0 0.00 0.00 0.00 37 1014.2
20260505213523 73 0 9.0 14.0 0.00 0.00 0.00 37 1013.8
20260505212522 73 0 8.0 18.0 0.00 0.00 0.00 39 1014.3
20260505211523 73 0 9.0 16.0 0.00 0.00 0.00 38 1014.1
20260505210606 72 0 9.0 16.0 0.00 0.00 0.00 41 1014.0
20260505205521 71 0 9.0 17.0 0.00 0.00 0.00 42 1014.0
20260505204524 70 0 6.0 10.0 0.00 0.00 0.00 44 1013.8
20260505203522 70 0 7.0 11.0 0.00 0.00 0.00 42 1013.9
20260505202523 71 0 9.0 15.0 0.00 0.00 0.00 39 1014.0
20260505201523 72 0 9.0 15.0 0.00 0.00 0.00 38 1014.0
20260505200519 71 0 9.0 16.0 0.00 0.00 0.00 40 1014.2
20260505195523 70 0 8.0 11.0 0.00 0.00 0.00 38 1013.9
20260505194518 71 0 5.0 9.0 0.00 0.00 0.00 38 1014.3
20260505193543 71 0 2.0 7.0 0.00 0.00 0.00 38 1014.3
20260505192526 70 0 5.0 10.0 0.00 0.00 0.00 42 1014.1
20260505191524 69 0 5.0 13.0 0.00 0.00 0.00 44 1014.2
20260505190525 68 0 8.0 11.0 0.00 0.00 0.00 46 1013.8
20260505185524 68 0 7.0 13.0 0.00 0.00 0.00 49 1013.8
20260505184524 67 0 7.0 14.0 0.00 0.00 0.00 49 1013.9
20260505183518 66 0 9.0 14.0 0.00 0.00 0.00 54 1013.7
20260505182523 65 0 8.0 13.0 0.00 0.00 0.00 55 1013.8
20260505181523 64 0 8.0 11.0 0.00 0.00 0.00 52 1013.5
20260505180524 64 0 8.0 11.0 0.00 0.00 0.00 53 1013.5
20260505175522 64 0 5.0 9.0 0.00 0.00 0.00 53 1013.5
20260505174521 62 0 5.0 8.0 0.00 0.00 0.00 50 1013.1
20260505173517 62 0 6.0 10.0 0.00 0.00 0.00 50 1013.1
20260505172519 61 0 6.0 9.0 0.00 0.00 0.00 50 1013.1
20260505171523 60 0 7.0 10.0 0.00 0.00 0.00 52 1012.8
20260505170525 59 0 6.0 10.0 0.00 0.00 0.00 54 1012.8
20260505165525 59 0 7.0 10.0 0.00 0.00 0.00 57 1012.9
20260505164527 58 0 7.0 11.0 0.00 0.00 0.00 60 1012.6
20260505163524 57 0 8.0 11.0 0.00 0.00 0.00 62 1012.6
20260505162518 56 0 8.0 11.0 0.00 0.00 0.00 64 1012.3
20260505161523 56 0 8.0 11.0 0.00 0.00 0.00 66 1012.3
20260505160521 55 0 9.0 13.0 0.00 0.00 0.00 68 1012.3
20260505152524 52 338 1.0 5.0 0.00 0.00 0.00 75 1011.6
20260505151517 51 0 4.0 7.0 0.00 0.00 0.00 77 1011.6
20260505150542 51 0 1.0 6.0 0.00 0.00 0.00 82 1011.4
20260505140518 44 0 2.0 4.0 0.00 0.00 0.00 93 1010.2
20260505124524 43 0 1.0 4.0 0.00 0.00 0.00 90 1009.5
20260505123525 43 0 3.0 5.0 0.00 0.00 0.00 90 1009.3
20260505122526 44 338 1.0 4.0 0.00 0.00 0.00 89 1009.4
20260505121525 44 0.0 0.0 0.00 0.00 0.00 89 1009.3
20260505120544 44 0.0 0.0 0.00 0.00 0.00 88 1009.2
20260505115520 45 0.0 0.0 0.00 0.00 0.00 88 1009.5
20260505114518 45 0.0 0.0 0.00 0.00 0.00 89 1009.3
20260505113523 45 0.0 0.0 0.00 0.00 0.00 89 1009.3
20260505112525 45 0.0 0.0 0.00 0.00 0.00 88 1009.2
20260505111522 46 0.0 0.0 0.00 0.00 0.00 88 1009.2
20260505110523 46 0.0 0.0 0.00 0.00 0.00 88 1009.1
20260505101543 47 0 5.0 7.0 0.00 0.00 0.00 87 1009.2
20260505100524 47 0 4.0 6.0 0.00 0.00 0.00 87 1009.3
20260505095523 48 338 5.0 7.0 0.00 0.00 0.00 87 1009.4
20260505094523 48 338 4.0 7.0 0.00 0.00 0.00 87 1009.3
20260505093600 48 338 5.0 10.0 0.00 0.00 0.00 87 1009.4
20260505092517 48 338 5.0 7.0 0.00 0.00 0.00 87 1009.3
20260505091523 48 338 4.0 7.0 0.00 0.00 0.00 87 1009.3
20260505090524 48 0 3.0 5.0 0.00 0.00 0.00 86 1009.3
20260505085521 47 0 2.0 4.0 0.00 0.00 0.00 85 1009.2
20260505084522 48 0.0 0.0 0.00 0.00 0.00 85 1009.2
20260505083543 48 0.0 0.0 0.00 0.00 0.00 84 1009.3
20260505082518 49 0.0 0.0 0.00 0.00 0.00 84 1009.6
20260505081538 49 0.0 3.0 0.00 0.00 0.00 84 1009.5
20260505080522 49 0.0 0.0 0.00 0.00 0.00 83 1009.5
20260505075523 50 0 2.0 4.0 0.00 0.00 0.00 83 1009.5
20260505074522 49 0 5.0 8.0 0.00 0.00 0.00 83 1009.3
20260505073523 50 0 6.0 8.0 0.00 0.00 0.00 82 1009.2
20260505072523 51 0 4.0 6.0 0.00 0.00 0.00 79 1009.6
20260505071540 52 0 4.0 8.0 0.00 0.00 0.00 79 1009.5
20260505070527 52 0 4.0 9.0 0.00 0.00 0.00 79 1009.4